Simultaneous Nadir Overpasses (SNOs) Predictions

Prediction of SNOs between GOES-16 and LANDSAT-8 Satellite Orbit:

Table of predicted SNOs for the next 14.0 days since TLE Epoch: 5/2/2020
Index Date Time (GOES-16) GOES-16 Lat,Lon LANDSAT-8 Lat,Lon Distance(km) Time Diff (sec)
1 05/02/2020 15:08:36 0.03, -75.20 -0.25, -73.93 145.41 80
2 05/03/2020 03:30:00 -0.03, -75.18 -0.85, -79.12 447.24 80
3 05/04/2020 14:56:23 0.03, -75.21 -0.85, -70.96 482.15 80
4 05/05/2020 03:17:47 -0.03, -75.19 -0.25, -76.16 110.38 80
5 05/07/2020 03:02:55 -0.03, -75.20 0.41, -73.21 227.01 80
6 05/07/2020 15:24:10 0.03, -75.23 0.70, -78.36 356.86 80
7 05/09/2020 15:11:58 0.02, -75.24 0.04, -75.42 19.23 80
8 05/11/2020 15:02:25 0.02, -75.26 -0.57, -72.45 319.10 80
9 05/12/2020 03:23:49 -0.01, -75.25 -0.53, -77.65 272.72 80
10 05/14/2020 03:08:57 -0.01, -75.28 0.15, -74.70 66.48 80




NCC Satellite Simultaneous Nadir Overpasses (SNOs) Prediction Service
